Date,TemperatureHighF,TemperatureAvgF,TemperatureLowF,DewpointHighF,DewpointAvgF,DewpointLowF,HumidityHigh,HumidityAvg,HumidityLow,PressureMaxIn,PressureMinIn,WindSpeedMaxMPH,WindSpeedAvgMPH,GustSpeedMaxMPH,PrecipitationSumIn
2013-3-1,39.6,36.5,34.2,29.5,27.4,24.6,78,69,62,30.01,29.95,15,3,15,0.00
2013-3-2,36.6,33.8,31.7,31.0,27.7,24.7,95,78,66,30.04,29.95,19,4,19,0.00
2013-3-3,38.4,31.9,28.7,24.9,21.0,18.7,77,64,48,30.10,30.01,22,5,23,0.00
2013-3-4,56.9,43.0,28.6,31.9,23.9,18.5,66,49,30,30.19,29.98,8,1,10,0.00
2013-3-5,63.7,52.1,37.7,55.2,43.5,27.9,94,73,48,30.06,29.65,21,4,24,0.26
2013-3-6,40.9,35.2,30.1,29.3,25.6,19.8,86,68,58,30.20,29.87,25,7,27,0.00
2013-3-7,53.8,40.3,30.2,33.7,29.4,25.6,85,67,43,30.27,30.16,14,4,14,0.00
2013-3-8,60.6,44.0,28.7,32.4,27.2,22.6,88,57,29,30.33,30.21,9,2,11,0.00
2013-3-9,60.1,50.7,40.0,34.6,29.6,23.0,58,45,36,30.31,30.17,7,1,7,0.00
2013-3-10,69.8,55.7,48.8,43.0,35.9,32.6,60,48,29,30.18,30.02,5,1,14,0.00
2013-3-11,64.2,55.5,45.6,55.2,50.7,43.3,97,85,60,30.03,29.76,17,3,17,1.40
2013-3-12,55.5,45.5,36.5,44.6,35.5,31.2,97,71,45,30.09,29.82,19,5,19,0.00
2013-3-13,52.7,44.2,35.7,34.0,28.1,21.8,75,55,32,30.25,30.09,18,4,22,0.00
2013-3-14,52.2,39.2,27.1,27.2,20.2,17.8,70,49,27,30.38,30.23,18,4,20,0.00
2013-3-15,73.8,54.5,35.3,44.9,37.4,26.9,85,56,35,30.25,29.97,14,2,14,0.00
2013-3-16,76.7,64.1,51.6,45.8,42.7,39.3,69,47,27,29.97,29.83,11,2,15,0.00
2013-3-17,69.8,62.0,52.8,55.1,49.8,42.9,85,65,50,29.97,29.86,9,2,9,0.00
2013-3-18,60.0,53.9,45.0,56.1,51.1,44.0,100,91,77,29.97,29.75,20,2,22,0.56
2013-3-19,59.9,50.4,41.8,45.8,35.8,25.2,98,63,35,30.07,29.85,18,4,21,0.00
2013-3-20,56.6,47.1,40.0,29.3,22.9,18.6,59,39,27,30.12,29.90,17,2,19,0.00
2013-3-21,46.4,37.7,28.0,29.7,18.1,8.0,75,48,28,29.99,29.89,22,4,22,0.00
2013-3-22,49.8,42.3,35.6,34.3,26.6,17.3,63,54,43,30.07,29.96,4,0,4,0.00
2013-3-23,55.8,47.6,41.7,51.0,43.9,34.1,97,88,61,30.01,29.73,7,1,7,0.98
2013-3-24,49.9,47.2,41.1,48.8,45.0,31.4,97,92,67,29.76,29.50,17,2,22,1.17
2013-3-25,41.0,36.2,33.3,31.7,24.7,21.6,72,63,54,30.08,29.68,22,5,23,0.00
2013-3-26,39.7,34.4,30.9,27.1,24.6,22.0,83,67,56,30.30,30.05,16,4,18,0.00
2013-3-27,52.0,39.5,28.3,29.3,25.7,22.6,84,60,38,30.36,30.25,16,3,16,0.00
2013-3-28,58.5,46.2,34.4,32.2,28.1,21.8,72,51,30,30.34,30.23,17,2,17,0.00
2013-3-29,67.7,53.5,40.7,38.6,33.4,27.1,70,48,32,30.32,30.14,7,1,9,0.00
2013-3-30,72.8,57.9,46.9,54.1,43.4,34.6,96,61,41,30.16,29.98,7,1,9,0.42
2013-3-31,67.5,59.9,54.4,60.7,55.1,53.2,97,85,64,29.99,29.82,9,1,11,0.19